Flag for U.S.A. Weather past 2 weeks in New Haven, Connecticut, U.S.A.

Now
63 °F

Clear.


Feels Like: 63 °F
Forecast: 61 / 71 °F
Wind: No wind

Location: Tweed-New Haven Airport

Current Time: Jul 4, 2015 at 12:33:11 AM

Latest Report: Jul 3, 2015 at 11:53 PM


Visibility: 10 mi

Pressure: 29.99 "Hg

Humidity: 87%

Dew point: 59 °F

Location of New HavenLocation

Historic Weather in New Haven — Graph

°F

New Haven temperature yesterday

Maximum temperature yesterday: 75 °F (at 11:53 AM)
Minimum temperature yesterday: 63 °F (at 5:53 AM)
Average temperature yesterday: 69 °F

Past Weeks' High & Low Weather Summary

 TemperatureHumidityPressure
High85 °F (Jun 21, 6:00 PM)97% (Jun 21, 1:53 AM)30.16 "Hg (Jun 21, 1:53 AM)
Low57 °F (Jun 25, 4:53 AM)42% (Jun 24, 5:53 PM)29.65 "Hg (Jun 28, 11:53 AM)
Average70 °F73%29.91 "Hg
* Reported Jun 18 10:53 PM — Jul 3 10:53 PM, New Haven, Weather by CustomWeather, © 2015

Note: Actual official high and low records may vary slightly from our data, if they occured in-between our weather recording intervals... More about our weather records

Advertising

New Haven weather history for previous 24 hours

 ConditionsComfort  
Time TempWeatherWind HumidityBarometerVisibility
10:53 PM
Fri, Jul 3
67 °FClear.No wind81%30.00 "Hg10 mi
9:53 PM67 °FClear.5 mph81%29.99 "Hg10 mi
8:53 PM68 °FPartly sunny.5 mph78%29.98 "Hg10 mi
7:53 PM70 °FPartly sunny.8 mph73%29.97 "Hg10 mi
6:53 PM74 °FPartly sunny.5 mph52%29.97 "Hg10 mi
5:53 PM74 °FPartly sunny.8 mph53%29.97 "Hg10 mi
4:53 PM74 °FPartly sunny.5 mph52%29.97 "Hg10 mi
3:53 PM74 °FPassing clouds.6 mph50%29.98 "Hg10 mi
2:53 PM74 °FPassing clouds.7 mph50%29.98 "Hg10 mi
1:53 PM74 °FPassing clouds.9 mph52%29.98 "Hg10 mi
12:53 PM74 °FPassing clouds.12 mph53%29.98 "Hg10 mi
11:53 AM75 °FPassing clouds.9 mph52%29.98 "Hg10 mi
10:53 AM73 °FSunny.9 mph48%29.97 "Hg10 mi
9:53 AM71 °FSunny.8 mph53%29.97 "Hg10 mi
8:53 AM69 °FSunny.10 mph57%29.97 "Hg10 mi
7:53 AM66 °FSunny.13 mph59%29.95 "Hg10 mi
6:53 AM63 °FSunny.9 mph63%29.94 "Hg10 mi
5:53 AM63 °FClear.6 mph60%29.92 "Hg10 mi
4:53 AM64 °FClear.6 mph63%29.90 "Hg10 mi
3:53 AM65 °FClear.7 mph68%29.89 "Hg10 mi
2:53 AM66 °FClear.3 mph75%29.89 "Hg10 mi
1:53 AM65 °FClear.6 mph85%29.89 "Hg10 mi
12:53 AM67 °FClear.5 mph85%29.88 "Hg10 mi
Weather by CustomWeather, © 2015

See weather overviewHow to use our weather pages